Regional Weather Roundup
Issued by NWS Kansas City/Pleasant Hill, MO

Home | Current Version | Previous Version | Text Only | Print | Product List | Glossary On
Versions: 1 2 3 4 5 6 7 8 9 10 11 12 13 14 15 16 17 18 19 20 21 22 23 24 25 26 27 28 29
000
ASUS43 KEAX 281210
RWREAX

WEATHER ROUNDUP FOR EASTERN KANSAS AND NORTHWEST MISSOURI
NATIONAL WEATHER SERVICE KANSAS CITY/PLEASANT HILL MO
700 AM CDT THU APR 28 2016

KSZ040-057-103>105-MOZ028-029-037-043-281300-
...KANSAS CITY METROPOLITAN AREA...

CITY           SKY/WX    TMP DP  RH WIND       PRES   REMARKS
K.C. INTL      CLOUDY    47  41  80 W13       29.82R
6HR MIN TEMP:  46; 6HR MAX TEMP:  50;

K.C. DOWNTOWN  CLOUDY    48  40  73 W8        29.84R
6HR MIN TEMP:  48; 6HR MAX TEMP:  53;

LEES SUMMIT    CLOUDY    46  39  76 W13       29.85R
6HR MIN TEMP:  45; 6HR MAX TEMP:  53;

OLATHE - IXD   CLOUDY    45  39  79 W10       29.86R
6HR MIN TEMP:  44; 6HR MAX TEMP:  51;

OLATHE - OJC   CLOUDY    44  39  82 W6        29.85R
6HR MIN TEMP:  43; 6HR MAX TEMP:  51;

LAWRENCE       CLOUDY    47  40  76 W12       29.86R

$$

MOZ001>008-011>017-020>025-030>033-038>040-044>046-053-054-281300-
...NORTHERN AND CENTRAL MISSOURI...

CITY           SKY/WX    TMP DP  RH WIND       PRES   REMARKS
ST. JOSEPH     CLOUDY    48  44  86 W16       29.81R
6HR MIN TEMP:  47; 6HR MAX TEMP:  49;

MOSBY            N/A     46  41  81 W8        29.83R
WARRENSBURG    CLEAR     45  39  81 SW10      29.85R
WHITEMAN AFB   PTCLDY    46  42  87 W12       29.84R
6HR MIN TEMP:  45; 6HR MAX TEMP:  54;

CLINTON        CLEAR     48  39  71 W14G20    29.87R
SEDALIA        CLEAR     49  41  74 W10       29.84R
6HR MIN TEMP:  49; 6HR MAX TEMP:  56;

WARSAW         NOT AVBL
CHILLICOTHE      N/A     49  32  52 VRB5      29.81R
6HR MIN TEMP:  45; 6HR MAX TEMP:  50;

KIRKSVILLE     MOCLDY    48  43  82 W9        29.78R
6HR MIN TEMP:  45; 6HR MAX TEMP:  52;


$$

MOZ041-047>049-056>058-063>065-088>090-097-281300-
...EASTERN AND SOUTHERN MISSOURI...

CITY           SKY/WX    TMP DP  RH WIND       PRES   REMARKS
ST. LOUIS INTL PTCLDY    58  51  78 SW3       29.79R
6HR MIN TEMP:  56; 6HR MAX TEMP:  66;

SPIRIT OF STL  CLEAR     52  52 100 CALM      29.79R
COLUMBIA       CLEAR     50  44  80 W9        29.81R
JEFFERSON CITY CLEAR     52  45  77 W5        29.83R
ROLLA          CLEAR     49  47  93 SW9       29.82R
OSAGE BEACH    CLEAR     50  39  66 SW6       29.85R
SPRINGFIELD    CLEAR     49  42  77 W9        29.88R
BRANSON        CLEAR     50  45  81 CALM      29.90R
JOPLIN         CLEAR     48  42  80 W7        29.91R
WEST PLAINS    CLEAR     50  46  86 W5        29.89R

$$

IAZ060-094-KSZ022-034>040-054-083-096-NEZ052-066-093-281300-
...KANSAS...SOUTHEAST NEBRASKA AND IOWA...

CITY           SKY/WX    TMP DP  RH WIND       PRES   REMARKS
TOPEKA         CLOUDY    47  39  74 W6        29.85R
6HR MIN TEMP:  45; 6HR MAX TEMP:  49;

MANHATTAN      CLOUDY    43  35  73 W10       29.89R
EMPORIA        CLOUDY    43  36  76 W10       29.90R
CHANUTE        PTCLDY    48  39  71 W10       29.90R
WICHITA        CLOUDY    47  38  71 NW7       29.94R
OMAHA          CLOUDY    47  45  93 NW14G20   29.77R
LINCOLN        CLOUDY    47  42  83 NW16      29.83R
FALLS CITY     CLOUDY    49  45  86 W14       29.80R
LAMONI         CLOUDY    45  42  89 W10       29.75R
DES MOINES     CLOUDY    47  43  86 NE6       29.74R

$$





USA.gov is the U.S. government's official web portal to all federal, state and local government web resources and services.